This is the latest recevied weather packets stored in our database for station/object RN1M-13. If no packets are shown the sender has not sent any weather packets the latest 10 day(s).
| Time | Temp. | Humidity | Pressure | Rain* | Wind** | Luminosity | Snow |
|---|---|---|---|---|---|---|---|
| 1787694736 | 16.67° C | 100% | 1019.9 hPa | - | - | - | - |
| 1787693836 | 16.67° C | 100% | 1019.7 hPa | - | - | - | - |
| 1787692936 | 17.22° C | 100% | 1019.6 hPa | - | - | - | - |
| 1787692036 | 17.22° C | 100% | 1019.5 hPa | - | - | - | - |
| 1787691138 | 17.22° C | 100% | 1019.4 hPa | - | - | - | - |
| 1787690239 | 17.22° C | 100% | 1019.6 hPa | - | - | - | - |
| 1787689339 | 17.22° C | 100% | 1019.6 hPa | - | - | - | - |
| 1787688439 | 17.22° C | 100% | 1019.4 hPa | - | - | - | - |
| 1787687539 | 17.22° C | 100% | 1019.2 hPa | - | - | - | - |
| 1787686639 | 17.78° C | 100% | 1019.2 hPa | - | - | - | - |
| 1787685739 | 17.78° C | 100% | 1019 hPa | - | - | - | - |
| 1787684839 | 18.33° C | 100% | 1018.8 hPa | - | - | - | - |
| 1787683039 | 18.33° C | 100% | 1018.2 hPa | - | - | - | - |
| 1787682138 | 18.89° C | 100% | 1018 hPa | - | - | - | - |
| 1787681238 | 18.89° C | 100% | 1017.8 hPa | - | - | - | - |
| 1787680340 | 18.33° C | 100% | 1017.8 hPa | - | - | - | - |
| 1787679443 | 18.89° C | 100% | 1017.4 hPa | - | - | - | - |
| 1787678542 | 18.89° C | 100% | 1017.2 hPa | - | - | - | - |
| 1787677642 | 18.89° C | 100% | 1017.3 hPa | - | - | - | - |
| 1787676742 | 18.89° C | 100% | 1017.5 hPa | - | - | - | - |
| 1787675849 | 18.89° C | 100% | 1018.2 hPa | - | - | - | - |
| 1787674942 | 19.44° C | 100% | 1018.5 hPa | - | - | - | - |
| 1787674042 | 18.89° C | 100% | 1018.2 hPa | - | - | - | - |
| 1787673142 | 19.44° C | 100% | 1018.5 hPa | - | - | - | - |
| 1787672242 | 18.33° C | 100% | 1018.6 hPa | - | - | - | - |
* Rain since midnight (hover to see other rain measurements)
** Current wind speed in m/s (hover to see current wind gust speed)